Find Starlink 31932

NORAD ID: 59929 Int'l Des: 2024-106 Owner: SPXS Country: US Constellation: starlink operational
LEOCIRCULAR

Live Position

Loading 3D Globe...

About Starlink 31932

Description loading...

Upcoming Passes

Passes for default location (London). Set your location on the main map for personalized predictions.

Altitude History

Loading altitude history...

Two-Line Element Set

1 59929U 24106H 26124.83335647 -.00014095 00000-0 -50338-3 0 9994
2 59929 43.0019 12.2505 0001558 259.6717 151.3474 15.27596991 5907
Epoch: May 4, 2026 • Age: 4 hours

Current Status

Altitude 493.2 km
Velocity 7.62 km/s
Sub-Earth Point -38.08°S, 25.4°E
Launch Date Jun 1, 2024
Age 1.9 years
Type internet

Technical Details

Classification Payload
Mass 730.00 kg
Dry Mass 700.00 kg
Total Mass 730.00 kg
Length 0.30 m
Diameter 4.10 m
Span 29.00 m
Shape Box + pan
Manufacturer SPXS
Bus Type Starlink V2M
Phase Status In Orbit
Owner/State SPXS/US

Most Searched